Pegasus-1 (41846 NORAD) Tracking and Keplerian Element Data

This shows tracking and keplerian element data for the satellite.

Feedback or suggestion? Click here.




ElementValue
Catalog41846
NamePegasus-1
Epoch Orbit12768
Epoch Day107.93374896
Epoch Year2019
RAAN147.124
Inclination98.7186
Eccentricity0.0368614
Argument of Perigee62.0903
Mean Anonmoly301.7099
Mean Motion14.37532884
Decay Rate3.1E-06
L11 41846U 16066F 19107.93374896 .00000310 00000-0 56598-4 0 9990
L22 41846 098.7186 147.1240 0368614 062.0903 301.7099 14.37532884127689

Live tracking and technical data element details for Pegasus-1 (NORAD 41846). Pegasus-1 can be tracked NOW for your location showing map with azimuth and elevation plus other details from your city location.

Track the satellite on the map from your city or location and see movement details for azimuth, elevation, latitude, longitude, range, height, and movement on the map or in text.







IsCatalogInMostPopularTable: catalog: 41846, numindb: 177
Update: records affected: 1



GetName: 41846 Pegasus-1

Hit Count: updated at: Wed, 24 Apr 2019 17:57:59 GMT